Radiation Dose measured at exhaust stack monitor of Fukushima Daiichi Nuclear Power Station
Date,Time,Unit 5 6 shared exhaust cylinders,Wind Direction,Wind Velocity(m/s)
2023/09/22,00:00,3.4,south-southwest,6.7
2023/09/22,00:10,3.6,south-southwest,6.2
2023/09/22,00:20,3.6,south-southwest,6.6
2023/09/22,00:30,3.6,south-southwest,6.7
2023/09/22,00:40,3.6,south-southwest,6.5
2023/09/22,00:50,3.6,south-southwest,7.6
2023/09/22,01:00,3.6,south-southwest,6.3
2023/09/22,01:10,3.7,south-southwest,6.2
2023/09/22,01:20,3.7,south-southwest,5.9
2023/09/22,01:30,3.6,south-southwest,4.6
2023/09/22,01:40,3.6,south,5.2
2023/09/22,01:50,3.7,south-southwest,4.6
2023/09/22,02:00,3.6,south,4.9
2023/09/22,02:10,3.8,south,3.3
2023/09/22,02:20,3.8,southwest,2.0
2023/09/22,02:30,3.6,southwest,2.0
2023/09/22,02:40,3.7,west,2.0
2023/09/22,02:50,3.8,west-northwest,2.0
2023/09/22,03:00,3.6,north-northwest,2.5
2023/09/22,03:10,3.7,northwest,4.9
2023/09/22,03:20,3.8,northwest,6.5
2023/09/22,03:30,3.7,northwest,6.1
2023/09/22,03:40,3.6,west-northwest,7.2
2023/09/22,03:50,3.5,west-northwest,6.9
2023/09/22,04:00,3.5,west-northwest,7.5
2023/09/22,04:10,3.7,west-northwest,4.9
2023/09/22,04:20,3.6,west-northwest,3.1
2023/09/22,04:30,3.6,northwest,3.8
2023/09/22,04:40,3.6,northwest,5.9
2023/09/22,04:50,3.5,northwest,5.7
2023/09/22,05:00,3.6,northwest,5.8
2023/09/22,05:10,3.7,west-northwest,6.5
2023/09/22,05:20,3.6,west,6.2
2023/09/22,05:30,3.7,west,7.2
2023/09/22,05:40,3.7,west,6.9
2023/09/22,05:50,3.4,west,6.7
2023/09/22,06:00,3.5,west,5.9
2023/09/22,06:10,3.8,west,6.5
2023/09/22,06:20,3.6,west,6.1
2023/09/22,06:30,3.5,northwest,6.1
2023/09/22,06:40,3.7,northwest,6.0
2023/09/22,06:50,3.8,northwest,5.0
2023/09/22,07:00,3.7,north-northwest,5.4
2023/09/22,07:10,3.7,north-northwest,5.9
2023/09/22,07:20,3.5,north-northwest,5.2
2023/09/22,07:30,3.7,north-northwest,4.6
2023/09/22,07:40,3.7,north-northwest,5.2
2023/09/22,07:50,3.7,north-northwest,5.9
2023/09/22,08:00,3.6,north-northwest,3.6
2023/09/22,08:10,3.5,north-northwest,4.0
2023/09/22,08:20,3.5,north-northwest,3.5
2023/09/22,08:30,3.7,north,3.5
2023/09/22,08:40,3.6,north,3.7
2023/09/22,08:50,3.6,north-northwest,4.9
2023/09/22,09:00,3.6,north-northwest,3.3
2023/09/22,09:10,3.6,north-northwest,4.3
2023/09/22,09:20,3.6,north,3.1
2023/09/22,09:30,3.6,north-northwest,3.7
2023/09/22,09:40,3.6,north,2.9
2023/09/22,09:50,3.5,north-northeast,2.3
2023/09/22,10:00,3.7,north,3.6
2023/09/22,10:10,3.7,north-northeast,5.5
2023/09/22,10:20,3.6,north,6.3
2023/09/22,10:30,3.7,north-northeast,6.2
2023/09/22,10:40,3.5,north-northeast,5.9
2023/09/22,10:50,3.5,north-northeast,6.0
2023/09/22,11:00,3.6,north-northeast,6.3
2023/09/22,11:10,3.7,north-northeast,6.7
2023/09/22,11:20,3.6,north-northeast,7.3
2023/09/22,11:30,3.4,north-northeast,8.9
2023/09/22,11:40,3.6,north-northeast,8.4
2023/09/22,11:50,3.7,north-northeast,7.7
2023/09/22,12:00,3.6,north-northeast,6.8
2023/09/22,12:10,3.7,north-northeast,6.8
2023/09/22,12:20,3.7,north-northeast,6.2
2023/09/22,12:30,3.6,north-northeast,6.5
2023/09/22,12:40,3.7,north-northeast,6.2
2023/09/22,12:50,3.6,north-northeast,6.0
2023/09/22,13:00,3.7,north-northeast,5.6
2023/09/22,13:10,3.6,northeast,5.7
2023/09/22,13:20,3.7,east-northeast,6.1
2023/09/22,13:30,3.7,northeast,5.3
2023/09/22,13:40,3.8,northeast,5.0
2023/09/22,13:50,3.7,northeast,4.9
2023/09/22,14:00,3.6,east-northeast,4.2
2023/09/22,14:10,3.6,east-northeast,4.9
2023/09/22,14:20,3.5,east-northeast,5.6
2023/09/22,14:30,3.7,east-northeast,5.1
2023/09/22,14:40,3.7,east-northeast,4.5
2023/09/22,14:50,3.8,east-northeast,4.0
2023/09/22,15:00,3.6,east-northeast,3.5
2023/09/22,15:10,3.8,east-northeast,3.4
2023/09/22,15:20,3.7,northeast,3.1
2023/09/22,15:30,3.7,east-northeast,4.1
2023/09/22,15:40,3.5,east-northeast,3.5
2023/09/22,15:50,3.6,east-northeast,3.2
2023/09/22,16:00,3.7,east-northeast,3.3
2023/09/22,16:10,3.6,east,3.3
2023/09/22,16:20,3.5,east,3.5
2023/09/22,16:30,3.6,east,2.6
2023/09/22,16:40,3.7,east-southeast,3.2
2023/09/22,16:50,3.6,east-southeast,2.5
2023/09/22,17:00,3.7,east-southeast,2.2
2023/09/22,17:10,3.6,east-southeast,1.2
2023/09/22,17:20,3.6,east-southeast,2.6
2023/09/22,17:30,3.5,east,1.7
2023/09/22,17:40,3.7,east-southeast,1.7
2023/09/22,17:50,3.7,east-southeast,1.9
2023/09/22,18:00,3.7,east-southeast,1.4
2023/09/22,18:10,3.6,east-southeast,2.0
2023/09/22,18:20,3.6,east-southeast,1.2
2023/09/22,18:30,3.5,east,1.5
2023/09/22,18:40,3.6,east,1.2
2023/09/22,18:50,3.7,southeast,0.9
2023/09/22,19:00,3.7,south-southeast,0.6
2023/09/22,19:10,3.5,southwest,0.9
2023/09/22,19:20,3.7,southwest,0.9
2023/09/22,19:30,3.8,south-southwest,1.7
2023/09/22,19:40,3.5,south-southwest,1.5
2023/09/22,19:50,3.6,south-southwest,1.2
2023/09/22,20:00,3.7,southwest,1.1
2023/09/22,20:10,3.5,west-southwest,0.9
2023/09/22,20:20,3.5,south-southwest,0.6
2023/09/22,20:30,3.8,west-southwest,1.5
2023/09/22,20:40,3.6,west-southwest,1.2
2023/09/22,20:50,3.7,west-southwest,0.8
2023/09/22,21:00,3.7,southwest,1.2
2023/09/22,21:10,3.7,south-southwest,1.2
2023/09/22,21:20,3.7,south-southwest,1.2
2023/09/22,21:30,3.5,southwest,1.1
2023/09/22,21:40,3.7,southwest,0.9
2023/09/22,21:50,3.6,west-southwest,1.4
2023/09/22,22:00,3.6,southwest,1.1
2023/09/22,22:10,3.6,west-southwest,1.1
2023/09/22,22:20,3.7,southwest,0.6
2023/09/22,22:30,3.7,west,0.9
2023/09/22,22:40,3.6,west-southwest,1.2
2023/09/22,22:50,3.8,-,CALM
2023/09/22,23:00,3.6,west-southwest,0.6
2023/09/22,23:10,3.6,west-southwest,0.6
2023/09/22,23:20,3.8,south,0.6
2023/09/22,23:30,3.6,west-southwest,0.6
2023/09/22,23:40,3.7,southwest,0.6
2023/09/22,23:50,3.7,northwest,0.6
